Clovis, NM

4:35 PM MDT on September 21, 2017 (GMT -0600)
Clovis Municipal

Weather History for KCVN - February, 2013

Change the Weather History Date:

Thursday, February 14, 2013

  Actual Average Record
Temperature  
Mean Temperature 40 °F -  
Max Temperature 55 °F 59 °F 75 °F (1962)
Min Temperature 26 °F 30 °F 8 °F (1966)
Degree Days  
Heating Degree Days 24    
Moisture  
Dew Point 23 °F    
Average Humidity 56    
Maximum Humidity 81    
Minimum Humidity 29    
Precipitation  
Precipitation 0.00 in - - ()
Sea Level Pressure  
Sea Level Pressure 30.06 in    
Wind  
Wind Speed 12 mph (NNE)    
Max Wind Speed 28 mph    
Max Gust Speed 33 mph    
Visibility 10 miles    
Events      
Averages and records for this station are not official NWS values.
T = Trace of Precipitation, MM = Missing Value Source: NWS Daily Summary

Daily Weather History Graph

Daily Weather History Graph

Search for Another Location

Airport or City:

Trip Planner

Search our weather history database for the weather conditions in past years. The results will help you decide how hot, cold, wet, or windy it might be!

Date:

Astronomy

Feb. 14, 2013 Rise Set
Actual Time 6:38 AM MST 5:35 PM MST
Civil Twilight 6:12 AM MST 6:00 PM MST
Nautical Twilight 5:43 AM MST 6:30 PM MST
Astronomical Twilight 5:13 AM MST 6:59 PM MST
Moon 8:56 AM MST (2/14) 10:24 PM MST (2/14)
Length of Visible Light 11h 48m
Length of Day
10h 56m
Waxing Crescent, 22% of the Moon is Illuminated
Feb 14
Waxing Crescent
Feb 17
First Quarter
Feb 25
Full
Mar 4
Last Quarter
Mar 11
New

Hourly Weather History & Observations

Time (MST) Temp. Windchill Dew Point Humidity Pressure Visibility Wind Dir Wind Speed Gust Speed Precip Events Conditions
12:15 AM 26.6 °F 20.0 °F 17.6 °F 69% 29.99 in 10.0 mi NNW 5.8 mph - N/A   Clear
12:35 AM 28.4 °F 20.4 °F 19.4 °F 69% 29.99 in 10.0 mi North 8.1 mph - N/A   Clear
12:55 AM 28.4 °F 19.1 °F 19.4 °F 69% 30.00 in 10.0 mi North 10.4 mph - N/A   Clear
1:15 AM 26.6 °F 18.2 °F 17.6 °F 69% 29.99 in 10.0 mi North 8.1 mph - N/A   Clear
1:35 AM 28.4 °F 20.4 °F 19.4 °F 69% 29.99 in 10.0 mi NNW 8.1 mph - N/A   Clear
1:55 AM 28.4 °F 19.1 °F 19.4 °F 69% 29.98 in 10.0 mi North 10.4 mph - N/A   Clear
2:15 AM 26.6 °F 17.5 °F 19.4 °F 74% 29.98 in 10.0 mi North 9.2 mph - N/A   Clear
2:35 AM 26.6 °F 15.7 °F 19.4 °F 74% 29.98 in 10.0 mi NNW 12.7 mph - N/A   Clear
2:55 AM 28.4 °F 18.0 °F 19.4 °F 69% 29.98 in 10.0 mi NNW 12.7 mph - N/A   Clear
3:15 AM 28.4 °F 17.5 °F 19.4 °F 69% 29.98 in 10.0 mi North 13.8 mph - N/A   Clear
3:35 AM 28.4 °F 17.0 °F 19.4 °F 69% 29.99 in 10.0 mi NNW 15.0 mph - N/A   Clear
3:55 AM 28.4 °F 17.0 °F 19.4 °F 69% 29.98 in 10.0 mi North 15.0 mph - N/A   Clear
4:15 AM 28.4 °F 17.5 °F 19.4 °F 69% 29.98 in 10.0 mi North 13.8 mph - N/A   Clear
4:35 AM 28.4 °F 17.5 °F 19.4 °F 69% 29.99 in 10.0 mi North 13.8 mph - N/A   Clear
4:55 AM 28.4 °F 18.0 °F 19.4 °F 69% 29.99 in 10.0 mi North 12.7 mph - N/A   Clear
5:15 AM 28.4 °F 17.5 °F 19.4 °F 69% 30.00 in 10.0 mi North 13.8 mph - N/A   Clear
5:35 AM 28.4 °F 17.5 °F 19.4 °F 69% 30.00 in 10.0 mi North 13.8 mph - N/A   Clear
5:55 AM 28.4 °F 19.1 °F 19.4 °F 69% 30.00 in 10.0 mi North 10.4 mph - N/A   Clear
6:15 AM 26.6 °F 16.8 °F 19.4 °F 74% 30.01 in 10.0 mi North 10.4 mph - N/A   Clear
6:35 AM 26.6 °F 16.8 °F 19.4 °F 74% 30.02 in 10.0 mi North 10.4 mph - N/A   Clear
6:55 AM 26.6 °F 16.8 °F 19.4 °F 74% 30.02 in 10.0 mi North 10.4 mph - N/A   Clear
7:15 AM 28.4 °F 19.7 °F 21.2 °F 74% 30.03 in 10.0 mi North 9.2 mph - N/A   Clear
7:35 AM 32.0 °F 24.2 °F 23.0 °F 69% 30.04 in 10.0 mi North 9.2 mph - N/A   Clear
7:55 AM 35.6 °F 27.1 °F 24.8 °F 65% 30.04 in 10.0 mi North 12.7 mph - N/A   Clear
8:15 AM 37.4 °F 28.2 °F 24.8 °F 60% 30.06 in 10.0 mi North 16.1 mph - N/A   Clear
8:35 AM 37.4 °F 27.5 °F 24.8 °F 60% 30.06 in 10.0 mi North 18.4 mph - N/A   Clear
8:55 AM 39.2 °F 30.5 °F 26.6 °F 61% 30.06 in 10.0 mi North 16.1 mph - N/A   Clear
9:15 AM 42.8 °F 35.1 °F 26.6 °F 53% 30.07 in 10.0 mi NNE 16.1 mph - N/A   Clear
9:35 AM 44.6 °F 38.1 °F 26.6 °F 49% 30.07 in 10.0 mi NNE 13.8 mph - N/A   Clear
9:55 AM 46.4 °F 40.4 °F 24.8 °F 43% 30.07 in 10.0 mi NNE 13.8 mph - N/A   Clear
10:15 AM 48.2 °F - 24.8 °F 40% 30.07 in 10.0 mi NNE 13.8 mph - N/A   Clear
10:35 AM 48.2 °F - 24.8 °F 40% 30.07 in 10.0 mi NE 12.7 mph 17.3 mph N/A   Clear
10:55 AM 50.0 °F - 24.8 °F 37% 30.07 in 10.0 mi ENE 12.7 mph 18.4 mph N/A   Clear
11:15 AM 51.8 °F - 24.8 °F 35% 30.05 in 10.0 mi East 13.8 mph 19.6 mph N/A   Clear
11:35 AM 51.8 °F - 23.0 °F 33% 30.04 in 10.0 mi East 9.2 mph 18.4 mph N/A   Clear
11:55 AM 53.6 °F - 23.0 °F 30% 30.03 in 10.0 mi East 15.0 mph 18.4 mph N/A   Clear
12:15 PM 51.8 °F - 24.8 °F 35% 30.03 in 10.0 mi East 8.1 mph - N/A   Clear
12:35 PM 53.6 °F - 24.8 °F 33% 30.02 in 10.0 mi ENE 10.4 mph 16.1 mph N/A   Clear
12:55 PM 53.6 °F - 26.6 °F 35% 30.01 in 10.0 mi ENE 12.7 mph 17.3 mph N/A   Clear
1:15 PM 53.6 °F - 26.6 °F 35% 30.01 in 10.0 mi East 6.9 mph 17.3 mph N/A   Clear
1:35 PM 53.6 °F - 24.8 °F 33% 30.00 in 10.0 mi NE 8.1 mph - N/A   Clear
1:55 PM 53.6 °F - 24.8 °F 33% 30.00 in 10.0 mi NE 3.5 mph - N/A   Clear
2:15 PM 53.6 °F - 24.8 °F 33% 30.00 in 10.0 mi NE 5.8 mph - N/A   Clear
2:35 PM 53.6 °F - 23.0 °F 30% 30.01 in 10.0 mi NW 4.6 mph - N/A   Clear
2:55 PM 55.4 °F - 24.8 °F 31% 30.01 in 10.0 mi East 6.9 mph - N/A   Clear
3:15 PM 55.4 °F - 23.0 °F 29% 30.01 in 10.0 mi NE 6.9 mph - N/A   Clear
3:35 PM 55.4 °F - 23.0 °F 29% 30.02 in 10.0 mi NE 5.8 mph - N/A   Clear
3:55 PM 53.6 °F - 24.8 °F 33% 30.03 in 10.0 mi ENE 15.0 mph - N/A   Clear
4:15 PM 53.6 °F - 23.0 °F 30% 30.04 in 10.0 mi ENE 12.7 mph 17.3 mph N/A   Clear
4:35 PM 53.6 °F - 23.0 °F 30% 30.05 in 10.0 mi NE 12.7 mph - N/A   Clear
4:55 PM 51.8 °F - 23.0 °F 33% 30.06 in 10.0 mi NE 18.4 mph - N/A   Clear
5:15 PM 48.2 °F - 23.0 °F 37% 30.07 in 10.0 mi NE 17.3 mph - N/A   Clear
5:35 PM 46.4 °F 40.4 °F 23.0 °F 40% 30.08 in 10.0 mi NE 13.8 mph - N/A   Clear
5:55 PM 44.6 °F 37.2 °F 24.8 °F 46% 30.09 in 10.0 mi NE 17.3 mph - N/A   Clear
6:15 PM 42.8 °F 35.4 °F 24.8 °F 49% 30.10 in 10.0 mi NE 15.0 mph - N/A   Clear
6:35 PM 41.0 °F 32.8 °F 24.8 °F 53% 30.10 in 10.0 mi NE 16.1 mph - N/A   Clear
6:55 PM 39.2 °F 30.5 °F 24.8 °F 56% 30.11 in 10.0 mi NE 16.1 mph - N/A   Clear
7:15 PM 39.2 °F 29.6 °F 23.0 °F 52% 30.13 in 10.0 mi NE 19.6 mph 25.3 mph N/A   Clear
7:35 PM 39.2 °F 28.7 °F 28.4 °F 65% 30.14 in 10.0 mi NE 23.0 mph 28.8 mph N/A   Scattered Clouds
7:55 PM 37.4 °F 27.2 °F 28.4 °F 70% 30.15 in 10.0 mi NE 19.6 mph - N/A   Scattered Clouds
8:15 PM 37.4 °F 26.6 °F 28.4 °F 70% 30.16 in 10.0 mi NE 21.9 mph 25.3 mph N/A   Clear
8:35 PM 35.6 °F 24.8 °F 26.6 °F 70% 30.17 in 10.0 mi NE 19.6 mph - N/A   Clear
8:55 PM 35.6 °F 24.5 °F 26.6 °F 70% 30.18 in 10.0 mi NE 20.7 mph 28.8 mph N/A   Scattered Clouds
9:15 PM 35.6 °F 24.5 °F 26.6 °F 70% 30.20 in 10.0 mi NE 20.7 mph - N/A   Scattered Clouds
9:35 PM 33.8 °F 21.9 °F 26.6 °F 75% 30.21 in 10.0 mi NE 21.9 mph - N/A   Partly Cloudy
9:55 PM 33.8 °F 22.2 °F 26.6 °F 75% 30.21 in 10.0 mi NE 20.7 mph 25.3 mph N/A   Scattered Clouds
10:15 PM 33.8 °F 22.5 °F 26.6 °F 75% 30.23 in 10.0 mi NE 19.6 mph - N/A   Scattered Clouds
10:35 PM 33.8 °F 23.2 °F 26.6 °F 75% 30.24 in 10.0 mi NE 17.3 mph - N/A   Mostly Cloudy
10:55 PM 33.8 °F 23.2 °F 26.6 °F 75% 30.26 in 10.0 mi NE 17.3 mph - N/A   Overcast
11:15 PM 33.8 °F 22.8 °F 26.6 °F 75% 30.27 in 10.0 mi NE 18.4 mph - N/A   Overcast
11:35 PM 33.8 °F 20.5 °F 28.4 °F 81% 30.28 in 10.0 mi NNE 27.6 mph 31.1 mph N/A   Overcast
11:55 PM 33.8 °F 20.5 °F 28.4 °F 81% 30.29 in 10.0 mi NNE 27.6 mph 33.4 mph N/A   Overcast